This demonstration page uses our WeatherBlox Daily Observations layout. Learn more.

Left ArrowRight Arrow

Hourly Observations for February 24, 2016

Temp ( °F °C ) Dew Point ( °F °C ) Humidity (%) Winds ( mph kmh ) Pressure ( in mb ) Visibility ( mi km ) Precip ( " mm )
12:54 am 00:54 Clear 28 -2.2 25 -3.9 88 88 NNW 6 9 30.10 1019 9 14 0.00 0.00
1:54 am 01:54 Clear 29 -1.7 25 -3.9 85 85 NNW 5 7 30.09 1019 9 14 0.00 0.00
2:54 am 02:54 Clear 28 -2.2 24 -4.4 85 85 NW 6 9 30.09 1019 9 14 0.00 0.00
3:54 am 03:54 Clear 28 -2.2 24 -4.4 85 85 NNW 7 11 30.08 1019 9 14 0.00 0.00
4:54 am 04:54 Clear 27 -2.8 23 -5 85 85 NNW 7 11 30.09 1019 9 14 0.00 0.00
5:54 am 05:54 Clear 27 -2.8 23 -5 85 85 NNW 7 11 30.09 1019 9 14 0.00 0.00
6:54 am 06:54 Clear 27 -2.8 23 -5 85 85 NNW 9 15 30.09 1019 9 14 0.00 0.00
7:54 am 07:54 Sunny 28 -2.2 23 -5 81 81 NNW 10 17 30.11 1020 8 13 0.00 0.00
8:54 am 08:54 Sunny 32 0 26 -3.3 79 79 N 13 20 30.11 1020 9 14 0.00 0.00
9:54 am 09:54 Sunny 36 2.2 27 -2.8 70 70 N 14 22 30.10 1019 10 16 0.00 0.00
10:54 am 10:54 Mostly Cloudy 38 3.3 25 -3.9 60 60 N 16 26 30.09 1019 10 16 0.00 0.00
11:03 am 11:03 Partly Cloudy 37 3 25 -4 60 60 N 16 26 30.12 1020 10 16 0.00 0.00
11:54 am 11:54 Sunny 41 5 24 -4.4 51 51 N 10 17 30.06 1018 10 16 0.00 0.00
12:54 pm 12:54 Sunny 43 6.1 23 -5 45 45 N 10 17 30.05 1018 10 16 0.00 0.00
1:54 pm 13:54 Sunny 45 7.2 23 -5 42 42 N 15 24 30.03 1017 10 16 0.00 0.00
2:54 pm 14:54 Sunny 45 7.2 22 -5.6 40 40 NW 18 30 30.03 1017 10 16 0.00 0.00
3:54 pm 15:54 Mostly Cloudy 44 6.7 24 -4.4 45 45 N 16 26 30.04 1017 10 16 0.00 0.00
4:54 pm 16:54 Mostly Cloudy 45 7.2 24 -4.4 44 44 N 17 28 30.04 1017 10 16 0.00 0.00
5:54 pm 17:54 Mostly Cloudy 41 5 26 -3.3 55 55 NNE 14 22 30.06 1018 10 16 0.00 0.00
6:54 pm 18:54 Cloudy 39 3.9 26 -3.3 60 60 NNE 10 17 30.09 1019 10 16 0.00 0.00
7:54 pm 19:54 Cloudy 38 3.3 27 -2.8 65 65 N 9 15 30.11 1020 10 16 0.00 0.00
8:15 pm 20:15 Cloudy with Light Snow 37 2.8 30 -1.1 76 76 NW 15 24 30.15 1021 7 11 0.00 0.03
8:54 pm 20:54 Cloudy with Light Snow 34 1.1 31 -0.6 89 89 N 6 9 30.12 1020 4 6 0.00 0.03
9:06 pm 21:06 Cloudy 35 1.7 32 0 89 89 NW 10 17 30.15 1021 9 14 0.00 0.03
9:39 pm 21:39 Cloudy 36 2.2 31 -0.6 82 82 NW 8 13 30.15 1021 10 16 0.00 0.03
9:54 pm 21:54 Cloudy 36 2.2 30 -1.1 79 79 NNW 15 24 30.13 1020 10 16 0.00 0.03
10:07 pm 22:07 Cloudy 36 2.2 29 -1.7 76 76 NNW 17 28 30.15 1021 10 16 0.00 0.00
10:35 pm 22:35 Cloudy 36 2.2 30 -1.1 79 79 NNW 20 31 30.18 1022 9 14 0.00 0.00
10:54 pm 22:54 Cloudy with Light Snow 35 1.7 31 -0.6 85 85 NNW 16 26 30.14 1021 4 6 0.00 0.03
11:40 pm 23:40 Windy with Snow Likely 34 1 30 -1 87 87 NNW 20 31 30.18 1022 3 5 0.00 0.00
11:52 pm 23:52 Windy with Snow Likely 34 1 30 -1 87 87 NNW 20 31 30.18 1022 3 4 0.00 0.00
11:54 pm 23:54 Windy with Snow Likely 34 1.1 30 -1.1 85 85 NNW 21 33 30.14 1021 3 4 0.00 0.03

Powered by AerisWeather